Weather in Taly

Russia / Komi Republic     64°36′50″N   55°41′18″E
temp.,
°C
wind,
m/s
gust,
m/s
humid.,
%
clouds,
%
prec.,
mm/h
press.,
hPa
HPBL,
m
23 october, sat
sat2300:00+4sw51197100 1.3 977889
03:00+4wsw61391100 1.4 9791074
06:00+2wsw5139099 0.0 981915
09:00+3wsw4119092 0.1 983902
12:000n3698100 2.1 985368
15:00−1nw4996100 3.7 990651
18:00−1nw5982100 0.2 994817
21:00−3wnw410926 0.2 998371
24 october, sun
sun2400:00−4w310945 0.0 1000299
03:00−5w389611 0.0 1003221
06:00−5w27978 0.0 1004176
09:00−3w2489100 0.0 1005180
12:00−1w2383100 0.0 1007337
15:00−3w1196100 0.0 100710
18:00−3w1397100 0.0 100795
21:00−4w1498100 0.0 100797
25 october, mon
mon2500:00−4w1496100 0.0 1007118
03:00−3sw1495100 0.0 1007131
06:00−3wsw2597100 0.6 1006300
09:00−2wnw3589100 1.2 1007658
12:00−3w2581100 0.1 1008677
15:00−3wsw1492100 0.3 1008370
18:00−4w259789 0.1 1009210
21:00−4wnw379596 0.4 1010440
26 october, tue
tue2600:00−6nw39925 0.1 1012336
03:00−7wnw38945 0.1 1012243
06:00−7w389644 0.0 1012228
09:00−5w388816 0.0 1012293
12:00−3w37786 0.0 1012497
15:00−4w39845 0.0 1012401
18:00−5w311875 0.0 1013362
21:00−6w310905 0.0 1013288
27 october, wed
wed2700:00−7w38945 0.0 1013221
03:00−8w269754 0.0 1014126
06:00−9wsw119875 0.0 101437
09:00−6ssw1189100 0.0 101480
12:00−4se2481100 0.0 1013311
15:00−4se3785100 0.0 1011360
18:00−4ese3986100 0.0 1009475
21:00−5ese41294100 0.9 1005650